Location: Enna
(37.5670°N, 14.2670°E)
Time: 12:34:16
(UTC+02:00)

ISS - Visible Passes

Search period start: 11 May 2021 00:00
Search period end: 21 May 2021 00:00
Orbit: 418 x 421 km, 51.6° (Epoch: 11 May)

Date Brightness Start Highest point End Pass type
(mag) Time Alt. Az. Time Alt. Az. Time Alt. Az.
11 May -1.3 05:17:02 10° NNW 05:19:56 25° NNE 05:22:47 10° E visible
12 May -0.7 04:29:55 10° NNW 04:32:19 18° NNE 04:34:44 10° ENE visible
13 May -0.5 03:42:53 10° N 03:44:39 13° NNE 03:46:27 10° NE visible
13 May -3.3 05:18:38 10° NW 05:22:00 68° NE 05:25:21 10° ESE visible
14 May -0.2 02:56:10 10° N 02:56:57 11° NNE 02:57:46 10° NNE visible
14 May -2.2 04:31:19 10° NW 04:34:31 39° NE 04:37:42 10° ESE visible
14 May -3.2 21:13:16 10° SSW 21:16:22 35° SE 21:19:29 10° ENE visible
14 May -1.4 22:50:24 10° W 22:53:14 25° NNW 22:55:37 13° NNE visible
15 May -1.4 03:44:06 10° NNW 03:46:59 25° NNE 03:49:51 10° E visible
15 May -3.1 05:20:43 10° WNW 05:23:50 34° SW 05:26:54 10° SSE visible
15 May -2.2 22:02:31 10° WSW 22:05:41 38° NW 22:08:51 10° NE visible
15 May -0.1 23:42:36 10° NNW 23:43:15 10° NNW 23:43:54 10° N visible
16 May -0.8 02:56:57 10° NNW 02:59:22 18° NNE 03:01:47 10° ENE visible
16 May -3.9 04:33:07 10° NW 04:36:28 65° SW 04:39:48 10° SE visible
16 May -3.3 21:14:52 10° WSW 21:18:12 65° NW 21:21:33 10° NE visible
16 May -0.4 22:53:51 10° NW 22:55:32 13° NNW 22:57:15 10° N visible
17 May -0.5 02:09:56 10° N 02:11:43 14° NNE 02:13:30 10° NE visible
17 May -3.5 03:45:40 10° NW 03:49:02 69° NE 03:52:23 10° ESE visible
17 May -0.7 22:05:31 10° WNW 22:07:53 17° NNW 22:10:14 10° NNE visible
18 May -1.2 21:17:26 10° W 21:20:16 24° NNW 21:23:06 10° NNE visible
19 May -0.2 22:09:41 10° NNW 22:10:17 10° NNW 22:10:54 10° N visible
20 May -0.6 21:20:52 10° NW 21:22:34 13° NNW 21:24:15 10° N visible
